Sandpoint, ID

6:20 PM PDT on June 18, 2018 (GMT -0700)
Sandpoint

Weather History for KSZT - June, 2018

Change the Weather History Date:

Wednesday, June 13, 2018

  Actual Average Record
Temperature  
Mean Temperature 60 °F -  
Max Temperature 69 °F 69 °F 88 °F (1918)
Min Temperature 50 °F 45 °F 30 °F (1952)
Degree Days  
Heating Degree Days 6    
Growing Degree Days 10 (Base 50)    
Moisture  
Dew Point 43 °F    
Average Humidity 56    
Maximum Humidity 82    
Minimum Humidity 38    
Precipitation  
Precipitation 0.00 in - - ()
Sea Level Pressure  
Sea Level Pressure 29.81 in    
Wind  
Wind Speed 3 mph (SW)    
Max Wind Speed 12 mph    
Max Gust Speed 18 mph    
Visibility 10 miles    
Events Rain    
Averages and records for this station are not official NWS values.
T = Trace of Precipitation, MM = Missing Value Source: NWS Daily Summary

Daily Weather History Graph

Daily Weather History Graph

Search for Another Location

Airport or City:

Astronomy

Jun. 13, 2018 Rise Set
Actual Time 4:44 AM PDT 8:48 PM PDT
Civil Twilight 4:03 AM PDT 9:29 PM PDT
Nautical Twilight 3:05 AM PDT 10:27 PM PDT
Astronomical Twilight 1:23 AM PDT 12:11 AM PDT
Moon 4:58 AM PDT (6/13) 8:43 PM PDT (6/13)
Length of Visible Light 17h 26m
Length of Day
16h 03m
Waning Crescent, 0% of the Moon is Illuminated
Jun 13
Waning Crescent
Jun 13
New
Jun 20
First Quarter
Jun 27
Full
Jul 6
Last Quarter

Hourly Weather History & Observations

Time (PDT) Temp. Dew Point Humidity Pressure Visibility Wind Dir Wind Speed Gust Speed Precip Events Conditions
12:15 AM 51.8 °F 42.8 °F 71% 29.91 in 10.0 mi Calm Calm - N/A   Scattered Clouds
12:35 AM 50.0 °F 44.6 °F 82% 29.90 in 10.0 mi Calm Calm - N/A   Mostly Cloudy
12:55 AM 51.8 °F 44.6 °F 76% 29.91 in 10.0 mi Calm Calm - N/A   Overcast
1:15 AM 50.0 °F 44.6 °F 82% 29.90 in 10.0 mi Calm Calm - N/A   Overcast
1:35 AM 51.8 °F 42.8 °F 71% 29.91 in 10.0 mi Calm Calm - N/A   Overcast
1:55 AM 50.0 °F 44.6 °F 82% 29.90 in 10.0 mi Calm Calm - N/A   Overcast
2:15 AM 51.8 °F 44.6 °F 76% 29.90 in 10.0 mi SE 3.5 mph - N/A   Overcast
2:35 AM 50.0 °F 44.6 °F 82% 29.89 in 10.0 mi Calm Calm - N/A   Overcast
2:55 AM 50.0 °F 44.6 °F 82% 29.88 in 10.0 mi West 3.5 mph - N/A   Overcast
3:15 AM 50.0 °F 44.6 °F 82% 29.88 in 10.0 mi Calm Calm - N/A   Overcast
3:35 AM 51.8 °F 44.6 °F 76% 29.88 in 10.0 mi Calm Calm - N/A   Overcast
3:55 AM 50.0 °F 44.6 °F 82% 29.87 in 10.0 mi Calm Calm - N/A   Overcast
4:15 AM 50.0 °F 44.6 °F 82% 29.87 in 10.0 mi Calm Calm - N/A   Overcast
4:35 AM 50.0 °F 44.6 °F 82% 29.87 in 10.0 mi Calm Calm - N/A   Overcast
4:55 AM 50.0 °F 44.6 °F 82% 29.87 in 10.0 mi Calm Calm - N/A   Overcast
5:15 AM 50.0 °F 44.6 °F 82% 29.87 in 10.0 mi Calm Calm - N/A   Overcast
5:35 AM 50.0 °F 44.6 °F 82% 29.87 in 10.0 mi Calm Calm - N/A   Overcast
5:55 AM 51.8 °F 42.8 °F 71% 29.87 in 10.0 mi NNE 4.6 mph - N/A   Overcast
6:15 AM 51.8 °F 42.8 °F 71% 29.87 in 10.0 mi North 3.5 mph - N/A   Overcast
6:35 AM 51.8 °F 41.0 °F 67% 29.86 in 10.0 mi NNE 5.8 mph - N/A   Overcast
6:55 AM 51.8 °F 42.8 °F 71% 29.86 in 10.0 mi North 5.8 mph - N/A   Overcast
7:15 AM 53.6 °F 42.8 °F 67% 29.86 in 10.0 mi Calm Calm - N/A   Overcast
7:35 AM 53.6 °F 42.8 °F 67% 29.86 in 10.0 mi NNE 4.6 mph - N/A   Mostly Cloudy
7:55 AM 55.4 °F 42.8 °F 63% 29.86 in 10.0 mi North 5.8 mph - N/A   Scattered Clouds
8:15 AM 55.4 °F 42.8 °F 63% 29.86 in 10.0 mi NNE 3.5 mph - N/A   Mostly Cloudy
8:35 AM 57.2 °F 42.8 °F 59% 29.85 in 10.0 mi NE 3.5 mph - N/A   Scattered Clouds
8:55 AM 57.2 °F 42.8 °F 59% 29.86 in 10.0 mi Calm Calm - N/A   Scattered Clouds
9:15 AM 59.0 °F 42.8 °F 55% 29.84 in 10.0 mi East 3.5 mph - N/A   Scattered Clouds
9:35 AM 59.0 °F 42.8 °F 55% 29.84 in 10.0 mi Calm Calm - N/A   Mostly Cloudy
9:55 AM 60.8 °F 42.8 °F 52% 29.83 in 10.0 mi Calm Calm - N/A   Overcast
10:15 AM 60.8 °F 42.8 °F 52% 29.83 in 10.0 mi Calm Calm - N/A   Overcast
10:35 AM 60.8 °F 42.8 °F 52% 29.82 in 10.0 mi Calm Calm - N/A   Mostly Cloudy
10:55 AM 62.6 °F 44.6 °F 52% 29.82 in 10.0 mi Calm Calm - N/A   Mostly Cloudy
11:15 AM 62.6 °F 44.6 °F 52% 29.82 in 10.0 mi SSW 3.5 mph - N/A   Overcast
11:35 AM 62.6 °F 44.6 °F 52% 29.82 in 10.0 mi SE 4.6 mph - N/A   Mostly Cloudy
11:55 AM 62.6 °F 46.4 °F 55% 29.82 in 10.0 mi ESE 4.6 mph - N/A   Scattered Clouds
12:15 PM 62.6 °F 44.6 °F 52% 29.82 in 10.0 mi SSW 4.6 mph - N/A   Mostly Cloudy
12:35 PM 64.4 °F 44.6 °F 49% 29.81 in 10.0 mi South 8.1 mph 16.1 mph N/A   Overcast
12:55 PM 68.0 °F 42.8 °F 40% 29.81 in 10.0 mi South 9.2 mph - N/A   Scattered Clouds
1:15 PM 68.0 °F 42.8 °F 40% 29.80 in 10.0 mi South 9.2 mph 17.3 mph N/A   Scattered Clouds
1:35 PM 69.8 °F 42.8 °F 38% 29.80 in 10.0 mi South 10.4 mph 18.4 mph N/A   Clear
1:55 PM 69.8 °F 42.8 °F 38% 29.79 in 10.0 mi South 11.5 mph 17.3 mph N/A   Clear
2:15 PM 69.8 °F 42.8 °F 38% 29.78 in 10.0 mi SSW 9.2 mph 16.1 mph N/A   Clear
2:35 PM 68.0 °F 42.8 °F 40% 29.78 in 10.0 mi SSW 4.6 mph - N/A   Clear
2:55 PM 69.8 °F 42.8 °F 38% 29.78 in 10.0 mi WSW 8.1 mph - N/A   Mostly Cloudy
3:15 PM 69.8 °F 42.8 °F 38% 29.78 in 10.0 mi SW 6.9 mph - N/A   Mostly Cloudy
3:35 PM 68.0 °F 42.8 °F 40% 29.76 in 10.0 mi SW 10.4 mph - N/A   Overcast
3:55 PM 69.8 °F 42.8 °F 38% 29.76 in 10.0 mi WSW 4.6 mph - N/A   Mostly Cloudy
4:15 PM 68.0 °F 44.6 °F 43% 29.75 in 10.0 mi SW 5.8 mph - N/A Rain Light Rain
4:35 PM 69.8 °F 44.6 °F 40% 29.75 in 10.0 mi SW 9.2 mph - N/A   Mostly Cloudy
4:55 PM 68.0 °F 42.8 °F 40% 29.74 in 10.0 mi West 4.6 mph - N/A   Mostly Cloudy
5:15 PM 68.0 °F 42.8 °F 40% 29.74 in 10.0 mi WSW 4.6 mph - N/A   Mostly Cloudy
5:35 PM 68.0 °F 42.8 °F 40% 29.73 in 10.0 mi SW 4.6 mph - N/A   Mostly Cloudy
5:55 PM 68.0 °F 42.8 °F 40% 29.73 in 10.0 mi SSW 4.6 mph - N/A   Scattered Clouds
6:15 PM 68.0 °F 42.8 °F 40% 29.73 in 10.0 mi SSW 5.8 mph - N/A   Mostly Cloudy
6:35 PM 66.2 °F 44.6 °F 46% 29.72 in 10.0 mi SSW 3.5 mph - N/A   Mostly Cloudy
6:55 PM 66.2 °F 46.4 °F 49% 29.72 in 10.0 mi West 3.5 mph - N/A   Scattered Clouds
7:15 PM 64.4 °F 44.6 °F 49% 29.72 in 10.0 mi Calm Calm - N/A   Scattered Clouds
7:35 PM 62.6 °F 46.4 °F 55% 29.71 in 10.0 mi WSW 3.5 mph - N/A   Scattered Clouds
7:55 PM 64.4 °F 42.8 °F 45% 29.71 in 10.0 mi SW 3.5 mph - N/A   Scattered Clouds
8:15 PM 60.8 °F 42.8 °F 52% 29.72 in 10.0 mi SW 3.5 mph - N/A   Clear
8:35 PM 62.6 °F 41.0 °F 45% 29.72 in 10.0 mi SW 5.8 mph - N/A   Clear
8:55 PM 64.4 °F 41.0 °F 42% 29.72 in 10.0 mi SW 5.8 mph - N/A   Clear
9:15 PM 62.6 °F 41.0 °F 45% 29.73 in 10.0 mi SW 8.1 mph - N/A   Clear
9:35 PM 62.6 °F 41.0 °F 45% 29.73 in 10.0 mi SW 9.2 mph - N/A   Clear
9:55 PM 62.6 °F 39.2 °F 42% 29.74 in 10.0 mi SW 6.9 mph - N/A   Clear
10:15 PM 62.6 °F 37.4 °F 39% 29.75 in 10.0 mi SSW 3.5 mph - N/A   Scattered Clouds
10:35 PM 60.8 °F 37.4 °F 42% 29.75 in 10.0 mi SW 4.6 mph - N/A   Clear
10:55 PM 59.0 °F 37.4 °F 45% 29.76 in 10.0 mi SW 4.6 mph - N/A   Clear
11:15 PM 59.0 °F 37.4 °F 45% 29.76 in 10.0 mi Calm Calm - N/A   Scattered Clouds
11:35 PM 55.4 °F 39.2 °F 54% 29.76 in 10.0 mi WSW 4.6 mph - N/A   Scattered Clouds
11:55 PM 57.2 °F 39.2 °F 51% 29.76 in 10.0 mi Calm Calm - N/A   Scattered Clouds